Tucson, AZ

7:45 AM MST on December 08, 2016 (GMT -0700)
Tucson International

Weather History for KTUS - January, 2012

Change the Weather History Date:

Thursday, January 5, 2012

  Actual Average Record
Temperature  
Mean Temperature 58 °F 52 °F  
Max Temperature 75 °F 65 °F 81 °F (1927)
Min Temperature 40 °F 39 °F 17 °F (1949)
Degree Days  
Heating Degree Days 7 13  
Month to date heating degree days 17 65  
Since 1 July heating degree days 695 676  
Cooling Degree Days 0 0  
Month to date cooling degree days 2 0  
Year to date cooling degree days 2 0  
Growing Degree Days 10 (Base 50)    
Moisture  
Dew Point 19 °F    
Average Humidity 26    
Maximum Humidity 42    
Minimum Humidity 9    
Precipitation  
Precipitation 0.00 in 0.03 in 1.00 in (1946)
Month to date precipitation 0.00 0.15  
Year to date precipitation 0.00 0.15  
Snow  
Snow 0.00 in - - ()
Month to date snowfall 0.0  
Snow Depth 0.00 in    
Sea Level Pressure  
Sea Level Pressure 30.14 in    
Wind  
Wind Speed 6 mph (SE)    
Max Wind Speed 16 mph    
Max Gust Speed 20 mph    
Visibility 10 miles    
Events      
T = Trace of Precipitation, MM = Missing Value Source: NWS Daily Summary

Daily Weather History Graph

Daily Weather History Graph

Search for Another Location

Airport or City:

Trip Planner

Search our weather history database for the weather conditions in past years. The results will help you decide how hot, cold, wet, or windy it might be!

Date:

Astronomy

Jan. 05, 2012 Rise Set
Actual Time 7:25 AM MST 5:33 PM MST
Civil Twilight 6:58 AM MST 5:59 PM MST
Nautical Twilight 6:28 AM MST 6:30 PM MST
Astronomical Twilight 5:58 AM MST 7:00 PM MST
Moon 2:39 PM MST (1/5) 4:13 AM MST (1/5)
Length of Visible Light 11h 01m
Length of Day
10h 07m
Waxing Gibbous, 88% of the Moon is Illuminated
Jan 5
Waxing Gibbous
Jan 9
Full
Jan 16
Last Quarter
Jan 23
New
Jan 30
First Quarter

Hourly Weather History & Observations

Time (MST) Temp. Windchill Dew Point Humidity Pressure Visibility Wind Dir Wind Speed Gust Speed Precip Events Conditions
12:53 AM 54.0 °F - 21.0 °F 28% 30.24 in 10.0 mi ESE 4.6 mph - N/A   Clear
1:53 AM 54.0 °F - 19.0 °F 25% 30.24 in 10.0 mi SE 12.7 mph - N/A   Clear
2:53 AM 54.0 °F - 19.0 °F 25% 30.23 in 10.0 mi SE 9.2 mph - N/A   Clear
3:53 AM 51.1 °F - 19.0 °F 28% 30.24 in 10.0 mi South 5.8 mph - N/A   Clear
4:53 AM 46.9 °F - 21.9 °F 37% 30.25 in 10.0 mi West 3.5 mph - N/A   Clear
5:53 AM 45.0 °F - 21.9 °F 40% 30.25 in 10.0 mi Calm Calm - N/A   Clear
6:53 AM 51.1 °F - 19.0 °F 28% 30.23 in 10.0 mi ESE 9.2 mph - N/A   Clear
7:53 AM 50.0 °F - 19.9 °F 31% 30.25 in 10.0 mi SE 10.4 mph - N/A   Clear
8:53 AM 50.0 °F - 21.9 °F 33% 30.27 in 10.0 mi SSE 9.2 mph - N/A   Clear
9:53 AM 57.9 °F - 21.0 °F 24% 30.24 in 10.0 mi SE 4.6 mph - N/A   Clear
10:53 AM 68.0 °F - 16.0 °F 14% 30.21 in 10.0 mi East 11.5 mph - N/A   Clear
11:53 AM 70.0 °F - 18.0 °F 14% 30.17 in 10.0 mi East 6.9 mph - N/A   Clear
12:53 PM 73.0 °F - 12.9 °F 10% 30.12 in 10.0 mi ESE 9.2 mph - N/A   Clear
1:53 PM 75.0 °F - 12.9 °F 9% 30.08 in 10.0 mi East 5.8 mph - N/A   Clear
2:53 PM 73.9 °F - 12.9 °F 10% 30.05 in 10.0 mi SE 6.9 mph - N/A   Clear
3:53 PM 75.0 °F - 12.0 °F 9% 30.04 in 10.0 mi East 5.8 mph - N/A   Clear
4:53 PM 73.0 °F - 12.0 °F 10% 30.03 in 10.0 mi ESE 3.5 mph - N/A   Clear
5:53 PM 68.0 °F - 15.1 °F 13% 30.03 in 10.0 mi Calm Calm - N/A   Clear
6:53 PM 62.1 °F - 21.0 °F 21% 30.03 in 10.0 mi SE 4.6 mph - N/A   Clear
7:53 PM 57.0 °F - 19.0 °F 23% 30.04 in 10.0 mi SSW 4.6 mph - N/A   Clear
8:53 PM 51.1 °F - 21.9 °F 32% 30.05 in 10.0 mi South 4.6 mph - N/A   Clear
9:53 PM 54.0 °F - 19.9 °F 26% 30.04 in 10.0 mi ESE 3.5 mph - N/A   Clear
10:53 PM 46.0 °F 43.1 °F 24.1 °F 42% 30.04 in 10.0 mi SSE 5.8 mph - N/A   Clear
11:53 PM 46.0 °F 43.1 °F 23.0 °F 40% 30.03 in 10.0 mi SE 5.8 mph - N/A   Clear